Wind_Speed
28 28 28 27 26 26 26 26 25 23 22 21 21 19 18 16 15 15 14 13 12 11 10 9 9 9 10 11 12 12 13 13 14 15 16 17 19 20 21 21 22 22 22 23
30 30 30 30 28 28 28 28 27 26 24 23 23 21 20 19 17 17 16 15 14 13 12 11 11 10 10 11 12 12 13 13 14 15 16 18 20 21 21 22 22 23 23 24
32 32 33 32 29 30 30 29 29 28 26 26 26 24 22 21 20 18 18 17 16 15 14 13 12 12 11 12 12 12 13 14 14 15 16 18 20 21 22 22 23 24 24 25
32 32 34 30 29 29 30 30 31 30 29 28 28 26 24 23 22 21 20 19 18 17 16 15 14 14 14 13 13 13 14 15 16 16 17 18 20 21 23 24 25 26 27 27
31 31 31 29 29 28 29 29 30 30 29 28 27 27 26 24 23 22 21 21 20 19 18 18 17 16 16 16 17 16 16 17 17 18 18 19 20 21 22 24 26 27 28 29
29 29 30 28 27 26 27 29 28 28 28 27 27 28 27 25 24 23 22 22 21 21 20 19 19 19 19 19 19 19 19 19 19 20 20 21 21 23 24 25 27 29 30 31
27 28 28 27 25 25 26 27 26 27 27 28 28 28 27 26 25 24 23 23 23 23 22 21 21 21 21 21 21 21 22 22 22 22 23 24 25 25 26 28 29 31 32 33
25 26 26 25 24 24 25 25 25 25 26 28 29 28 28 28 27 26 26 25 25 24 24 24 23 23 23 23 24 25 24 24 24 25 25 26 27 28 29 30 31 32 33 35
23 24 25 24 23 23 24 24 24 25 26 27 28 28 29 29 28 28 27 27 26 26 26 26 25 24 25 25 25 25 26 25 26 27 27 28 29 30 32 33 33 34 36 37
21 21 22 22 22 23 23 24 24 25 26 27 27 28 29 28 28 28 28 28 27 26 25 25 25 25 26 25 25 25 26 27 27 28 29 30 31 32 33 34 35 36 37 38
19 19 20 20 20 21 22 23 23 24 25 26 27 27 28 28 27 26 26 25 25 25 25 25 26 26 26 26 27 27 28 28 28 30 30 31 32 33 34 35 36 37 38 39
17 17 18 18 18 20 21 22 22 23 24 25 26 27 27 26 26 25 24 24 25 24 24 25 26 26 27 27 28 28 29 29 30 31 31 32 34 35 36 37 38 39 40 41
13 15 16 16 17 19 20 20 21 22 23 24 25 25 25 24 24 23 24 24 25 24 25 25 26 26 26 27 28 28 29 30 31 32 33 34 35 36 37 38 39 41 42 43
11 11 11 12 13 16 18 18 19 19 20 21 22 22 23 24 24 23 23 23 23 24 24 25 26 27 28 27 27 27 28 29 30 32 33 34 35 37 38 40 41 42 43 44
8 8 8 9 11 13 14 15 15 16 18 19 19 20 20 21 21 21 21 21 22 23 24 24 25 25 25 26 26 27 28 30 31 32 34 36 37 39 40 42 43 45 46 47
7 6 6 7 7 10 11 13 15 15 16 16 16 16 16 16 17 18 18 20 21 21 21 22 23 24 25 25 27 28 30 31 33 35 36 38 39 41 42 43 44 45 47 48
6 6 7 8 8 9 10 10 11 12 12 12 12 13 14 15 16 16 17 17 18 19 20 21 22 23 25 26 28 30 31 33 35 36 38 39 41 42 43 44 45 46 47 47
5 5 6 6 8 8 8 9 10 10 10 11 11 11 12 13 14 14 15 16 17 19 20 22 23 24 26 28 29 31 33 35 36 37 39 40 42 43 44 44 45 46 47 47
6 6 6 7 7 7 8 8 8 9 9 9 9 9 11 11 12 14 15 17 18 20 22 23 25 26 28 30 32 33 35 36 38 39 40 41 42 42 43 44 44 44 44 45
7 6 7 7 7 7 7 8 8 9 9 8 9 10 11 12 13 15 17 19 20 22 24 26 28 29 31 32 34 35 36 37 38 39 40 41 41 42 42 42 42 43 43 42
8 7 8 7 7 7 7 7 6 6 7 8 10 11 13 15 17 19 20 22 24 26 27 29 30 32 33 34 35 36 37 38 39 40 41 41 41 42 41 41 41 41 40 39
8 8 8 7 6 7 7 7 7 9 10 12 13 15 17 19 21 22 24 25 27 28 30 31 32 33 34 35 36 37 38 38 39 39 40 40 40 40 39 38 38 37 36 34
9 9 9 8 8 8 9 10 11 13 14 15 17 19 20 22 23 25 26 28 29 31 32 33 33 34 35 36 36 37 37 37 38 38 38 37 36 36 35 34 33 32 31 30
10 10 10 10 10 11 12 13 14 16 17 19 20 22 23 24 26 27 29 30 31 32 33 33 34 35 35 35 35 35 35 35 35 35 35 34 33 32 31 30 29 28 26 25
11 11 12 12 13 14 15 16 17 18 20 21 22 24 25 26 28 29 30 31 32 33 33 34 34 34 34 34 33 33 33 33 32 32 31 30 29 27 26 25 24 23 22 21
13 13 13 15 16 16 17 18 19 21 22 23 24 25 27 28 29 30 31 32 32 32 32 32 32 32 32 31 31 31 30 30 29 28 27 26 24 23 23 21 20 19 19 18
14 15 16 17 18 18 19 21 22 23 24 26 27 27 28 29 30 30 31 31 30 30 30 30 30 30 30 30 29 28 27 27 26 25 24 23 22 21 20 19 18 17 17 17
Wind_Direction
247 249 254 256 257 257 256 255 256 258 257 257 256 258 256 256 264 268 269 272 274 272 271 271 268 266 258 251 248 247 245 242 240 239 241 244 244 246 248 252 254 256 257 259
255 256 257 257 256 256 256 256 256 256 254 254 254 254 251 250 256 261 263 265 266 267 267 265 266 263 261 255 251 247 244 241 241 245 249 251 251 252 254 257 259 260 260 262
257 259 260 260 258 257 256 254 254 254 250 248 249 250 249 246 249 253 257 261 261 263 263 262 265 261 259 259 254 248 245 245 247 251 257 259 257 256 258 261 262 263 264 265
258 259 261 262 260 257 256 253 253 252 249 246 246 245 245 245 247 249 255 256 254 255 257 259 260 258 254 253 251 249 248 251 254 257 261 262 260 260 260 260 263 265 266 268
259 262 263 263 261 258 254 250 249 248 246 244 243 241 241 242 244 247 251 252 250 249 252 255 254 253 253 255 254 253 252 254 256 259 262 262 262 263 265 265 266 268 270 270
259 261 263 262 259 257 254 251 246 245 242 240 239 239 238 238 240 243 247 247 246 246 249 251 251 251 252 255 256 255 256 258 261 263 263 264 265 267 269 270 269 270 273 272
260 261 262 260 258 255 251 248 244 240 237 234 234 235 236 235 236 240 242 242 243 245 247 249 252 253 254 257 258 258 260 261 263 265 266 268 269 270 272 272 273 274 275 276
260 259 259 259 257 252 249 244 239 235 233 231 232 233 233 234 236 238 240 240 244 247 248 249 250 254 255 258 259 260 261 263 265 267 269 271 272 274 275 276 277 278 279 279
257 257 258 256 254 249 245 238 234 232 229 229 229 230 231 233 236 238 238 240 243 247 250 250 250 252 256 258 259 260 264 266 267 267 268 271 272 275 277 277 277 279 280 280
257 257 257 254 251 246 239 234 232 230 228 227 228 228 230 231 233 235 236 239 241 243 247 249 250 252 254 256 260 262 265 268 269 270 271 273 275 277 279 279 279 280 281 282
257 256 255 253 248 241 234 230 227 225 225 226 226 227 230 231 231 233 234 236 239 242 245 247 250 254 255 257 261 264 267 269 270 272 274 275 277 278 279 280 281 282 282 283
255 252 254 250 242 237 231 227 224 225 224 223 224 225 226 227 230 233 236 236 238 241 245 248 252 255 257 261 263 265 268 270 272 274 275 277 278 279 280 281 282 282 283 284
254 248 249 243 236 230 227 224 224 223 222 222 221 220 222 227 231 232 234 235 238 243 248 252 256 257 261 264 266 268 271 273 275 277 278 280 281 281 282 283 283 284 285 286
246 243 239 232 225 216 214 214 215 216 216 216 217 219 221 223 225 228 232 237 242 248 253 256 260 261 264 266 268 270 273 276 278 280 281 282 283 284 285 286 287 287 287 288
228 228 227 222 215 207 205 201 201 204 205 208 211 215 220 225 227 232 239 244 250 253 256 260 263 266 268 270 273 275 277 279 281 283 285 286 287 288 288 289 289 290 290 290
227 225 213 202 191 189 190 190 193 196 202 206 211 216 223 232 236 241 248 251 255 258 262 266 269 271 273 275 277 280 282 284 286 287 288 289 290 290 290 291 291 291 292 292
223 214 204 198 189 184 181 186 192 195 200 209 216 224 230 233 237 245 252 257 262 265 269 272 274 276 279 282 284 286 287 288 289 290 291 292 292 292 293 293 293 294 294 294
202 186 176 181 185 186 186 186 188 196 206 215 218 223 231 238 247 254 261 266 269 272 276 280 283 286 288 290 291 292 292 293 294 294 295 295 295 296 296 296 296 296 296 296
189 181 181 181 182 184 183 186 198 212 221 228 234 241 246 253 261 269 273 278 282 285 288 290 291 292 292 293 294 294 295 295 296 297 297 297 297 297 298 298 299 299 299 299
193 193 189 187 194 198 204 214 222 227 234 245 254 259 265 272 278 283 288 290 292 293 293 294 294 294 295 296 296 296 296 297 298 299 299 299 299 300 300 300 301 302 302 302
201 199 197 198 201 207 216 223 231 242 255 267 275 282 286 288 290 291 293 293 294 295 295 296 296 297 297 297 298 298 299 299 299 300 300 300 300 301 301 302 302 303 303 303
210 209 209 211 225 237 247 257 266 274 280 285 287 289 291 292 293 294 295 296 297 297 297 297 298 298 297 298 299 300 300 300 301 301 301 302 302 302 302 303 303 304 304 304
221 226 230 236 246 255 261 267 274 279 283 287 289 291 292 294 295 296 297 297 297 297 298 298 298 298 298 299 300 300 301 301 302 303 304 304 304 304 304 304 305 305 305 305
230 238 247 255 261 267 273 278 282 285 287 290 291 292 294 295 296 297 298 298 298 298 299 299 299 300 300 300 301 301 302 303 304 305 305 305 305 305 305 306 306 306 307 307
238 248 256 262 268 273 277 281 284 288 290 292 293 294 295 296 297 298 299 299 300 300 300 300 300 301 301 301 302 302 303 304 305 306 306 306 307 307 308 308 309 309 309 310
248 256 262 267 272 276 279 283 286 289 291 292 294 295 296 297 298 299 300 301 301 301 301 301 302 302 302 302 303 304 305 306 306 306 306 307 308 308 309 311 311 311 312 313
256 262 267 271 275 279 282 285 287 290 291 293 294 295 296 298 299 300 301 302 303 303 304 303 303 303 303 303 304 305 306 306 307 306 306 307 309 310 310 310 310 310 313 316
Height
5803 5805 5806 5807 5809 5810 5812 5814 5816 5818 5819 5820 5820 5820 5821 5822 5822 5822 5822 5822 5822 5822 5822 5823 5823 5824 5824 5825 5825 5826 5827 5828 5830 5831 5833 5835 5836 5838 5839 5840 5842 5843 5843 5844
5795 5796 5797 5798 5801 5802 5803 5805 5807 5809 5811 5812 5812 5814 5815 5816 5817 5818 5818 5819 5819 5819 5820 5820 5821 5821 5822 5822 5823 5824 5825 5826 5827 5828 5830 5831 5832 5833 5834 5836 5836 5837 5838 5838
5786 5787 5787 5789 5793 5793 5794 5796 5798 5800 5803 5804 5805 5807 5809 5811 5812 5813 5814 5815 5815 5816 5816 5817 5817 5818 5819 5819 5820 5820 5822 5823 5824 5825 5826 5827 5828 5829 5830 5830 5831 5831 5832 5832
5777 5778 5778 5784 5783 5784 5785 5787 5789 5790 5793 5795 5797 5799 5802 5804 5806 5808 5809 5810 5811 5812 5813 5813 5814 5814 5815 5816 5817 5817 5818 5819 5820 5821 5822 5822 5823 5823 5824 5824 5825 5825 5825 5825
5768 5769 5770 5773 5773 5774 5775 5777 5779 5781 5783 5786 5789 5792 5794 5797 5800 5802 5803 5804 5806 5807 5808 5809 5810 5811 5812 5812 5813 5814 5814 5815 5816 5817 5817 5817 5817 5817 5818 5818 5818 5818 5818 5817
5759 5760 5761 5764 5764 5764 5767 5768 5770 5772 5775 5778 5781 5784 5788 5790 5793 5795 5797 5798 5800 5801 5802 5803 5805 5806 5807 5808 5808 5809 5810 5810 5811 5812 5812 5812 5812 5812 5812 5811 5811 5811 5810 5809
5751 5751 5752 5754 5756 5757 5759 5761 5762 5764 5766 5770 5773 5777 5780 5783 5785 5788 5790 5792 5793 5795 5796 5798 5799 5800 5801 5802 5803 5803 5804 5804 5805 5805 5805 5805 5805 5805 5805 5804 5803 5802 5802 5800
5743 5743 5746 5746 5747 5749 5750 5751 5753 5756 5759 5762 5765 5769 5772 5775 5778 5781 5783 5785 5787 5789 5790 5792 5793 5794 5795 5796 5796 5797 5798 5798 5798 5798 5798 5798 5798 5797 5797 5796 5795 5794 5792 5791
5736 5738 5737 5738 5739 5740 5742 5744 5746 5749 5752 5755 5758 5762 5765 5768 5771 5773 5776 5778 5780 5782 5784 5785 5787 5788 5789 5789 5790 5791 5791 5791 5791 5791 5791 5791 5790 5789 5788 5787 5785 5784 5782 5781
5728 5729 5729 5730 5731 5732 5734 5736 5739 5742 5745 5748 5752 5755 5758 5761 5764 5766 5769 5772 5774 5775 5777 5779 5781 5782 5782 5783 5783 5784 5784 5784 5784 5784 5783 5782 5781 5780 5779 5777 5776 5774 5772 5770
5722 5722 5722 5723 5724 5725 5727 5729 5732 5735 5738 5742 5745 5749 5751 5754 5757 5760 5762 5764 5767 5769 5771 5773 5774 5775 5775 5776 5776 5777 5777 5776 5776 5775 5775 5773 5772 5771 5769 5768 5766 5764 5761 5759
5716 5717 5717 5717 5718 5719 5721 5723 5726 5730 5733 5736 5739 5742 5745 5748 5751 5754 5756 5758 5761 5763 5764 5766 5767 5767 5768 5768 5769 5769 5769 5768 5767 5766 5765 5764 5762 5761 5759 5757 5755 5752 5750 5747
5712 5711 5711 5711 5712 5713 5715 5717 5720 5724 5727 5730 5733 5736 5740 5743 5746 5748 5750 5752 5755 5756 5758 5759 5760 5760 5760 5761 5761 5761 5760 5759 5758 5757 5756 5754 5752 5750 5748 5746 5743 5741 5738 5734
5708 5708 5707 5707 5708 5709 5711 5713 5716 5719 5722 5726 5729 5732 5735 5738 5741 5743 5745 5747 5749 5750 5752 5752 5753 5753 5753 5753 5753 5752 5752 5751 5749 5748 5746 5744 5742 5739 5737 5734 5731 5728 5725 5721
5704 5704 5705 5705 5705 5706 5708 5711 5713 5716 5719 5722 5726 5729 5732 5734 5736 5739 5740 5742 5744 5745 5745 5746 5746 5746 5745 5745 5745 5744 5743 5742 5740 5738 5736 5733 5731 5728 5725 5721 5718 5714 5710 5707
5702 5703 5703 5704 5704 5705 5707 5709 5712 5715 5717 5720 5723 5726 5728 5731 5733 5735 5736 5737 5738 5738 5739 5739 5739 5738 5738 5737 5736 5735 5733 5732 5730 5727 5725 5722 5719 5716 5712 5708 5704 5700 5696 5692
5701 5701 5702 5703 5704 5705 5707 5709 5711 5713 5716 5718 5720 5723 5725 5727 5728 5730 5731 5731 5732 5732 5732 5732 5732 5731 5730 5729 5727 5726 5724 5721 5719 5716 5713 5710 5706 5703 5699 5695 5690 5686 5682 5677
5699 5700 5701 5702 5703 5705 5706 5708 5711 5713 5715 5717 5718 5720 5722 5723 5724 5725 5726 5726 5726 5726 5726 5725 5724 5723 5721 5720 5718 5716 5713 5711 5708 5705 5701 5698 5694 5690 5685 5681 5676 5672 5667 5663
5699 5700 5701 5702 5703 5705 5707 5708 5710 5712 5713 5715 5716 5717 5719 5719 5720 5720 5721 5720 5720 5719 5719 5717 5716 5715 5713 5711 5708 5706 5703 5700 5697 5693 5689 5685 5681 5677 5672 5668 5663 5659 5654 5649
5698 5699 5700 5702 5703 5705 5706 5708 5709 5710 5712 5713 5714 5715 5715 5715 5716 5715 5715 5714 5714 5713 5712 5710 5708 5706 5704 5701 5698 5695 5692 5689 5685 5681 5677 5673 5669 5665 5660 5655 5651 5646 5641 5637
5697 5699 5700 5702 5703 5704 5706 5707 5708 5709 5709 5710 5711 5711 5711 5711 5710 5710 5709 5708 5707 5705 5704 5702 5699 5697 5694 5691 5688 5685 5681 5677 5673 5669 5665 5661 5657 5652 5648 5644 5639 5635 5630 5625
5697 5698 5700 5701 5702 5703 5704 5705 5706 5706 5707 5707 5707 5707 5706 5706 5705 5704 5702 5701 5699 5697 5695 5692 5690 5687 5684 5681 5677 5674 5670 5666 5662 5658 5654 5649 5645 5641 5637 5632 5628 5624 5620 5615
5695 5697 5698 5699 5700 5701 5702 5702 5703 5703 5703 5703 5702 5701 5700 5699 5698 5696 5695 5693 5690 5688 5686 5683 5680 5677 5674 5670 5667 5663 5659 5655 5651 5647 5643 5639 5634 5630 5626 5622 5618 5614 5610 5606
5693 5695 5696 5696 5697 5698 5698 5698 5699 5698 5698 5697 5696 5695 5694 5693 5691 5689 5687 5684 5682 5679 5676 5673 5670 5667 5664 5660 5656 5653 5649 5645 5641 5637 5633 5629 5625 5621 5617 5613 5610 5606 5602 5599
5691 5692 5693 5693 5694 5694 5694 5694 5694 5693 5692 5691 5690 5689 5687 5685 5683 5681 5678 5675 5673 5669 5666 5663 5660 5657 5653 5650 5646 5643 5639 5635 5632 5628 5624 5620 5616 5613 5609 5606 5602 5599 5596 5593
5687 5688 5689 5689 5690 5690 5689 5689 5688 5687 5686 5685 5683 5681 5679 5677 5675 5672 5669 5666 5663 5660 5657 5653 5650 5647 5644 5640 5637 5634 5630 5627 5623 5620 5616 5613 5609 5606 5603 5599 5597 5594 5591 5588
5683 5684 5684 5684 5684 5684 5683 5683 5682 5680 5679 5677 5675 5673 5671 5669 5666 5663 5660 5657 5654 5651 5648 5644 5641 5638 5635 5632 5629 5625 5622 5619 5616 5612 5609 5606 5603 5600 5597 5594 5592 5589 5586 5583